Location: Campavaglio
(41.1333°N, 9.2333°E)
Time: 07:47:24
(UTC+00:00)

Cosmos 1125 Rocket - Pass Details

Date: 07 June 2020
Orbit: 758 x 779 km, 74.0° (Epoch: 08 July)

Event Time Altitude Azimuth Distance (km) Brightness Sun altitude
Rises 01:39:11 0° 335° (NNW) 3,225 7.2 -18.6°
Reaches altitude 10° 01:41:36 10° 330° (NNW) 2,296 6.3 -18.3°
Maximum altitude 01:46:37 50° 256° (WSW) 965 3.7 -17.8°
Enters shadow 01:48:52 30° 198° (SSW) 1,346 4.2 -17.6°
